Flag for Germany Weather past 2 weeks in Offenburg, Baden-Württemberg, Germany

Now
54 °F

Sunny.


Feels Like: 49 °F
Forecast: 45 / 54 °F
Wind: 16 mph from West

Location: Lahr - CAN-AFB

Current Time: Mar 30, 2015 at 6:51:00 PM

Latest Report: Mar 30, 2015 at 6:20 PM


Visibility: 10 mi

Pressure: 29.92 "Hg

Humidity: 44%

Dew point: 32 °F

Location of OffenburgLocation

Historic Weather in Offenburg — Graph

°F

Offenburg temperature yesterday

Maximum temperature yesterday: 54 °F (at 10:50 AM)
Minimum temperature yesterday: 52 °F (at 8:50 AM)
Average temperature yesterday: 52 °F

Past Weeks' High & Low Weather Summary

 TemperatureHumidityPressure
High64 °F (Mar 18, 3:50 PM)100% (Mar 17, 8:20 AM)30.27 "Hg (Mar 17, 8:20 AM)
Low32 °F (Mar 16, 7:20 AM)34% (Mar 20, 3:50 PM)29.65 "Hg (Mar 25, 7:50 AM)
Average51 °F62%30.01 "Hg
* Reported Mar 15 7:50 PM — Mar 30 5:50 PM, Offenburg, Weather by CustomWeather, © 2015

Note: Actual official high and low records may vary slightly from our data, if they occured in-between our weather recording intervals... More about our weather records

Advertising

Offenburg weather history for previous 24 hours

 ConditionsComfort  
Time TempWeatherWind HumidityBarometerVisibility
5:50 PM
Mon, Mar 30
54 °FSunny.15 mph44%29.92 "Hg10 mi
5:20 PM54 °FSunny.15 mph47%29.92 "Hg10 mi
4:50 PM54 °FPartly sunny.14 mph44%29.89 "HgN/A
4:20 PM54 °FPartly sunny.10 mph47%29.89 "HgN/A
3:50 PM54 °FPartly sunny.10 mph44%29.86 "HgN/A
3:20 PM54 °FScattered clouds.17 mph51%29.86 "HgN/A
2:50 PM52 °FPartly sunny.8 mph58%29.86 "HgN/A
2:20 PM52 °FBroken clouds.14 mph67%29.86 "HgN/A
1:50 PM50 °FPartly sunny.16 mph67%29.83 "HgN/A
1:20 PM54 °FPartly sunny.18 mph51%29.80 "HgN/A
12:50 PM54 °FPartly sunny.25 mph54%29.80 "HgN/A
12:20 PM54 °FPartly sunny.22 mph54%29.77 "HgN/A
11:50 AM52 °FPartly sunny.22 mph58%29.77 "HgN/A
11:20 AM52 °FPartly sunny.20 mph62%29.77 "HgN/A
10:50 AM52 °FPartly sunny.20 mph62%29.74 "HgN/A
10:20 AM50 °FBroken clouds.10 mph71%29.74 "HgN/A
9:50 AM50 °FBroken clouds.14 mph76%29.71 "HgN/A
9:20 AM48 °FBroken clouds.9 mph87%29.71 "HgN/A
8:50 AM48 °FBroken clouds.5 mph82%29.68 "HgN/A
8:20 AM50 °FLight rain. Broken clouds.6 mph82%29.68 "HgN/A
7:50 AM48 °FLight rain. Partly cloudy.7 mph87%29.65 "HgN/A
Weather by CustomWeather, © 2015

See weather overviewHow to use our weather pages